FIN4KB ESSA-EFHK

Flight info

Callsign FIN4KB
Flight time 0h 44m
Altitude 29000
Route TOVRI N851 RIKUM DCT RIRIP Y364 LAKUT
Aircraft A333/H-SDE3GHIJ2J3J5M1RVWXY/LB2D1

Departure

Time 2026-05-07 17:00
Airport Stockholm-Arlanda Airport (ESSA)

Arrival

Time 2026-05-07 17:44
Airport Helsinki Vantaa Airport (EFHK)
Time Latitude Longitude Altitude Speed Heading
2026-05-07 16:49 59.65431 17.93483 112 ft 0 kts 76°
2026-05-07 16:50 59.65428 17.93459 111 ft 2 kts 76°
2026-05-07 16:50 59.65425 17.93432 111 ft 2 kts 76°
2026-05-07 16:50 59.65421 17.93405 111 ft 2 kts 76°
2026-05-07 16:51 59.65416 17.93378 111 ft 2 kts 44°
2026-05-07 16:51 59.65404 17.93364 111 ft 2 kts 341°
2026-05-07 16:51 59.65396 17.93369 111 ft 0 kts 343°
2026-05-07 16:52 59.65418 17.93358 111 ft 10 kts 346°
2026-05-07 16:52 59.65476 17.93343 114 ft 4 kts 359°
2026-05-07 16:52 59.65512 17.93313 111 ft 7 kts 304°
2026-05-07 16:53 59.65518 17.93192 115 ft 12 kts 258°
2026-05-07 16:53 59.65489 17.92990 113 ft 19 kts 251°
2026-05-07 16:53 59.65441 17.92748 112 ft 14 kts 245°
2026-05-07 16:53 59.65471 17.92579 109 ft 19 kts 322°
2026-05-07 16:54 59.65601 17.92492 107 ft 18 kts 346°
2026-05-07 16:54 59.65738 17.92428 108 ft 15 kts 353°
2026-05-07 16:54 59.65853 17.92454 109 ft 19 kts
2026-05-07 16:54 59.65998 17.92508 110 ft 24 kts
2026-05-07 16:55 59.66157 17.92564 112 ft 25 kts 10°
2026-05-07 16:55 59.66290 17.92612 121 ft 19 kts 11°
2026-05-07 16:55 59.66425 17.92656 121 ft 19 kts
2026-05-07 16:55 59.66532 17.92607 125 ft 0 kts 340°
2026-05-07 16:56 59.66547 17.92597 122 ft 0 kts 341°
2026-05-07 16:56 59.66574 17.92579 124 ft 9 kts 341°
2026-05-07 16:56 59.66603 17.92364 125 ft 2 kts 212°
2026-05-07 16:57 59.66593 17.92361 125 ft 0 kts 191°
2026-05-07 16:59 59.66584 17.92358 125 ft 8 kts 191°
2026-05-07 16:59 59.66284 17.92252 121 ft 79 kts 191°
2026-05-07 16:59 59.65550 17.91988 111 ft 137 kts 187°
2026-05-07 16:59 59.64509 17.91598 474 ft 153 kts 186°
2026-05-07 17:00 59.63508 17.91233 1310 ft 137 kts 189°
2026-05-07 17:00 59.62599 17.90911 1988 ft 138 kts 188°
2026-05-07 17:00 59.61556 17.90703 2269 ft 165 kts 184°
2026-05-07 17:00 59.60307 17.90546 2520 ft 193 kts 183°
2026-05-07 17:01 59.58866 17.90772 2729 ft 225 kts 164°
2026-05-07 17:01 59.57498 17.92552 3128 ft 252 kts 127°
2026-05-07 17:01 59.56908 17.95833 3900 ft 261 kts 90°
2026-05-07 17:01 59.57282 17.99338 4792 ft 264 kts 65°
2026-05-07 17:02 59.58158 18.02496 5775 ft 266 kts 54°
2026-05-07 17:02 59.59229 18.05488 6769 ft 269 kts 51°
2026-05-07 17:02 59.60345 18.08490 7729 ft 273 kts 51°
2026-05-07 17:02 59.61443 18.11608 8675 ft 280 kts 53°
2026-05-07 17:03 59.62509 18.14889 9612 ft 286 kts 55°
2026-05-07 17:03 59.63546 18.18315 10438 ft 297 kts 56°
2026-05-07 17:03 59.64611 18.21989 10805 ft 321 kts 57°
2026-05-07 17:03 59.65728 18.25952 11325 ft 336 kts 58°
2026-05-07 17:04 59.66863 18.30046 12094 ft 344 kts 58°
2026-05-07 17:04 59.68027 18.34265 12883 ft 350 kts 58°
2026-05-07 17:04 59.69204 18.38533 13688 ft 356 kts 58°
2026-05-07 17:04 59.70406 18.42876 14397 ft 363 kts 58°
2026-05-07 17:05 59.71633 18.47301 15088 ft 369 kts 58°
2026-05-07 17:05 59.72867 18.51750 15754 ft 375 kts 58°
2026-05-07 17:05 59.74130 18.56309 16480 ft 380 kts 57°
2026-05-07 17:05 59.75412 18.60941 17155 ft 386 kts 57°
2026-05-07 17:06 59.76715 18.65656 17792 ft 392 kts 57°
2026-05-07 17:06 59.78033 18.70433 18420 ft 397 kts 58°
2026-05-07 17:06 59.79370 18.75299 18985 ft 403 kts 58°
2026-05-07 17:06 59.80715 18.80204 19547 ft 407 kts 58°
2026-05-07 17:07 59.82076 18.85180 20117 ft 411 kts 58°
2026-05-07 17:07 59.83430 18.90136 20677 ft 415 kts 58°
2026-05-07 17:07 59.84816 18.95223 21217 ft 420 kts 58°
2026-05-07 17:07 59.86211 19.00352 21769 ft 424 kts 58°
2026-05-07 17:08 59.87624 19.05560 22285 ft 429 kts 58°
2026-05-07 17:08 59.89045 19.10804 22827 ft 433 kts 58°
2026-05-07 17:08 59.90475 19.16101 23345 ft 437 kts 58°
2026-05-07 17:08 59.91922 19.21472 23834 ft 441 kts 58°
2026-05-07 17:09 59.93379 19.26892 24291 ft 445 kts 58°
2026-05-07 17:09 59.94849 19.32372 24685 ft 450 kts 58°
2026-05-07 17:09 59.96271 19.37870 25120 ft 455 kts 62°
2026-05-07 17:09 59.97357 19.43844 25563 ft 460 kts 70°
2026-05-07 17:10 59.98253 19.50003 25996 ft 464 kts 72°
2026-05-07 17:10 59.99066 19.56261 26423 ft 467 kts 73°
2026-05-07 17:10 59.99835 19.62597 26835 ft 470 kts 74°
2026-05-07 17:10 60.00584 19.68963 27255 ft 473 kts 75°
2026-05-07 17:11 60.01335 19.75398 27654 ft 476 kts 75°
2026-05-07 17:11 60.02090 19.81854 28051 ft 479 kts 74°
2026-05-07 17:11 60.02854 19.88357 28452 ft 481 kts 74°
2026-05-07 17:11 60.03626 19.94907 28846 ft 484 kts 74°
2026-05-07 17:12 60.04401 20.01483 29124 ft 485 kts 74°
2026-05-07 17:12 60.05161 20.07972 29158 ft 473 kts 74°
2026-05-07 17:12 60.06650 20.20729 29145 ft 476 kts 74°
2026-05-07 17:13 60.07403 20.27188 29146 ft 488 kts 74°
2026-05-07 17:13 60.08181 20.33885 29137 ft 499 kts 75°
2026-05-07 17:13 60.09746 20.47526 29143 ft 503 kts 75°
2026-05-07 17:14 60.11294 20.61200 29135 ft 502 kts 75°
2026-05-07 17:14 60.12828 20.74882 29140 ft 502 kts 75°
2026-05-07 17:15 60.14352 20.88591 29126 ft 503 kts 75°
2026-05-07 17:15 60.15853 21.02238 29133 ft 503 kts 75°
2026-05-07 17:16 60.17347 21.15951 29117 ft 503 kts 76°
2026-05-07 17:16 60.18827 21.29688 29128 ft 499 kts 76°
2026-05-07 17:17 60.19651 21.36370 29172 ft 484 kts 68°
2026-05-07 17:17 60.21080 21.42370 29132 ft 471 kts 53°
2026-05-07 17:17 60.24800 21.53089 29129 ft 471 kts 49°
2026-05-07 17:18 60.28639 21.63825 29127 ft 471 kts 49°
2026-05-07 17:18 60.32465 21.74552 29124 ft 471 kts 49°
2026-05-07 17:19 60.34375 21.79921 28820 ft 469 kts 49°
2026-05-07 17:19 60.36287 21.85294 28038 ft 472 kts 49°
2026-05-07 17:19 60.37987 21.91041 27265 ft 481 kts 63°
2026-05-07 17:19 60.38880 21.97487 26702 ft 484 kts 82°
2026-05-07 17:20 60.38857 22.04212 26469 ft 473 kts 100°
2026-05-07 17:20 60.37978 22.10469 26233 ft 456 kts 116°
2026-05-07 17:20 60.36710 22.16277 25924 ft 447 kts 119°
2026-05-07 17:20 60.35405 22.21956 25505 ft 444 kts 119°
2026-05-07 17:21 60.34105 22.27585 25077 ft 441 kts 119°
2026-05-07 17:21 60.32813 22.33182 24632 ft 438 kts 119°
2026-05-07 17:21 60.31531 22.38737 24213 ft 435 kts 119°
2026-05-07 17:21 60.30276 22.44180 23783 ft 432 kts 119°
2026-05-07 17:22 60.29009 22.49669 23308 ft 430 kts 119°
2026-05-07 17:22 60.27750 22.55104 22839 ft 426 kts 119°
2026-05-07 17:22 60.26494 22.60492 22387 ft 422 kts 119°
2026-05-07 17:22 60.25249 22.65807 21913 ft 418 kts 119°
2026-05-07 17:23 60.24019 22.71079 21512 ft 413 kts 119°
2026-05-07 17:23 60.22799 22.76304 21051 ft 410 kts 118°
2026-05-07 17:23 60.21955 22.81806 20571 ft 414 kts 97°
2026-05-07 17:23 60.22123 22.87527 20144 ft 410 kts 74°
2026-05-07 17:24 60.23264 22.92660 19729 ft 398 kts 50°
2026-05-07 17:24 60.25123 22.96647 19335 ft 387 kts 37°
2026-05-07 17:24 60.26922 23.00611 18920 ft 391 kts 49°
2026-05-07 17:24 60.28269 23.05388 18512 ft 395 kts 66°
2026-05-07 17:25 60.28876 23.10791 18072 ft 394 kts 82°
2026-05-07 17:25 60.29138 23.16270 17706 ft 391 kts 84°
2026-05-07 17:25 60.29675 23.21588 17282 ft 385 kts 68°
2026-05-07 17:25 60.30608 23.26620 16813 ft 381 kts 65°
2026-05-07 17:26 60.31274 23.29886 16521 ft 379 kts 64°
2026-05-07 17:26 60.32307 23.34740 16095 ft 374 kts 63°
2026-05-07 17:26 60.33346 23.39533 15659 ft 371 kts 63°
2026-05-07 17:26 60.34376 23.44251 15103 ft 363 kts 63°
2026-05-07 17:27 60.35385 23.48867 14296 ft 357 kts 63°
2026-05-07 17:27 60.36378 23.53410 13483 ft 350 kts 63°
2026-05-07 17:27 60.37354 23.57875 12678 ft 343 kts 63°
2026-05-07 17:27 60.38303 23.62231 11891 ft 335 kts 64°
2026-05-07 17:28 60.39235 23.66508 11270 ft 331 kts 64°
2026-05-07 17:28 60.40157 23.70747 10814 ft 327 kts 64°
2026-05-07 17:28 60.41066 23.74933 10648 ft 323 kts 65°
2026-05-07 17:28 60.41965 23.79085 10566 ft 322 kts 65°
2026-05-07 17:29 60.42862 23.83234 10437 ft 321 kts 65°
2026-05-07 17:29 60.43675 23.87445 10164 ft 320 kts 73°
2026-05-07 17:29 60.44078 23.91861 10083 ft 318 kts 82°
2026-05-07 17:29 60.44340 23.96221 10022 ft 312 kts 83°
2026-05-07 17:30 60.44583 24.00561 9613 ft 309 kts 83°
2026-05-07 17:30 60.44823 24.04881 9157 ft 306 kts 83°
2026-05-07 17:30 60.45061 24.09134 8804 ft 301 kts 82°
2026-05-07 17:30 60.45293 24.13273 8647 ft 289 kts 83°
2026-05-07 17:31 60.45316 24.17209 8475 ft 280 kts 100°
2026-05-07 17:31 60.44594 24.20804 8023 ft 274 kts 123°
2026-05-07 17:31 60.43468 24.23896 7334 ft 273 kts 129°
2026-05-07 17:31 60.42276 24.26861 6747 ft 269 kts 130°
2026-05-07 17:32 60.41078 24.29737 6110 ft 267 kts 130°
2026-05-07 17:32 60.39858 24.32576 5411 ft 267 kts 130°
2026-05-07 17:32 60.38661 24.35369 5059 ft 257 kts 130°
2026-05-07 17:32 60.37494 24.38098 5000 ft 257 kts 130°
2026-05-07 17:33 60.36327 24.40828 5006 ft 257 kts 130°
2026-05-07 17:33 60.35166 24.43550 5014 ft 255 kts 130°
2026-05-07 17:33 60.34003 24.46270 4996 ft 256 kts 130°
2026-05-07 17:33 60.33010 24.49180 4997 ft 255 kts 111°
2026-05-07 17:34 60.32736 24.52661 4997 ft 251 kts 86°
2026-05-07 17:34 60.32891 24.56167 4993 ft 250 kts 80°
2026-05-07 17:34 60.33103 24.59646 4991 ft 250 kts 80°
2026-05-07 17:34 60.33321 24.63126 4994 ft 250 kts 80°
2026-05-07 17:35 60.33541 24.66606 4992 ft 250 kts 80°
2026-05-07 17:35 60.33762 24.70083 4996 ft 249 kts 80°
2026-05-07 17:35 60.33977 24.73519 4997 ft 249 kts 80°
2026-05-07 17:35 60.34338 24.76910 4998 ft 246 kts 63°
2026-05-07 17:36 60.35384 24.79549 4999 ft 240 kts 33°
2026-05-07 17:36 60.36912 24.80704 5002 ft 235 kts
2026-05-07 17:36 60.38512 24.80266 4998 ft 233 kts 343°
2026-05-07 17:36 60.40054 24.79255 4981 ft 233 kts 340°
2026-05-07 17:37 60.41588 24.78180 4996 ft 234 kts 340°
2026-05-07 17:37 60.43078 24.76878 4657 ft 234 kts 328°
2026-05-07 17:37 60.44380 24.74922 4160 ft 232 kts 321°
2026-05-07 17:37 60.45625 24.72860 3691 ft 230 kts 320°
2026-05-07 17:38 60.46865 24.70816 3210 ft 231 kts 320°
2026-05-07 17:38 60.48136 24.68888 2704 ft 233 kts 328°
2026-05-07 17:38 60.49717 24.68128 2224 ft 238 kts
2026-05-07 17:38 60.51280 24.69188 2010 ft 242 kts 33°
2026-05-07 17:39 60.52367 24.71796 1987 ft 245 kts 65°
2026-05-07 17:39 60.52618 24.75138 1990 ft 239 kts 99°
2026-05-07 17:39 60.51855 24.77907 1994 ft 219 kts 141°
2026-05-07 17:39 60.50524 24.79067 2005 ft 204 kts 168°
2026-05-07 17:40 60.49169 24.79925 1993 ft 204 kts 162°
2026-05-07 17:40 60.47880 24.81142 1993 ft 205 kts 156°
2026-05-07 17:40 60.46618 24.82467 1993 ft 198 kts 155°
2026-05-07 17:40 60.45456 24.83683 2006 ft 176 kts 156°
2026-05-07 17:41 60.44428 24.84750 2010 ft 164 kts 157°
2026-05-07 17:41 60.43392 24.85808 2003 ft 165 kts 156°
2026-05-07 17:41 60.42391 24.86831 1985 ft 157 kts 156°
2026-05-07 17:41 60.41443 24.87804 1994 ft 150 kts 156°
2026-05-07 17:42 60.40516 24.88758 1918 ft 149 kts 156°
2026-05-07 17:42 60.39592 24.89707 1722 ft 148 kts 156°
2026-05-07 17:42 60.38675 24.90652 1488 ft 147 kts 156°
2026-05-07 17:42 60.37764 24.91590 1290 ft 146 kts 157°
2026-05-07 17:43 60.36870 24.92506 1135 ft 145 kts 156°
2026-05-07 17:43 60.35976 24.93443 960 ft 143 kts 156°
2026-05-07 17:43 60.35099 24.94341 687 ft 140 kts 156°
2026-05-07 17:43 60.34239 24.95218 498 ft 137 kts 155°
2026-05-07 17:44 60.33389 24.96105 312 ft 138 kts 156°
2026-05-07 17:44 60.32557 24.96936 184 ft 128 kts 155°
2026-05-07 17:44 60.31878 24.97624 156 ft 82 kts 153°
2026-05-07 17:44 60.31578 24.97933 157 ft 26 kts 153°
2026-05-07 17:45 60.31478 24.97980 157 ft 1 kts 193°
2026-05-07 17:45 60.31469 24.97973 157 ft 2 kts 201°
2026-05-07 17:45 60.31453 24.97958 158 ft 3 kts 204°
2026-05-07 17:45 60.31451 24.97956 158 ft 0 kts 208°
2026-05-07 17:46 60.31441 24.97943 158 ft 0 kts 213°
2026-05-07 17:46 60.31432 24.97926 159 ft 5 kts 225°
2026-05-07 17:46 60.31426 24.97905 159 ft 0 kts 239°
2026-05-07 17:47 60.31414 24.97828 159 ft 12 kts 264°
2026-05-07 17:47 60.31433 24.97753 159 ft 8 kts 319°
2026-05-07 17:47 60.31522 24.97657 160 ft 19 kts 334°
2026-05-07 17:47 60.31634 24.97542 162 ft 18 kts 333°
2026-05-07 17:48 60.31746 24.97425 163 ft 12 kts 333°
2026-05-07 17:48 60.31841 24.97327 166 ft 19 kts 333°
2026-05-07 17:48 60.31994 24.97170 169 ft 26 kts 332°
2026-05-07 17:48 60.32143 24.97017 169 ft 24 kts 333°
2026-05-07 17:49 60.32270 24.96886 168 ft 0 kts 333°
2026-05-07 17:49 60.32301 24.96804 169 ft 13 kts 282°
2026-05-07 17:49 60.32256 24.96651 171 ft 17 kts 220°
2026-05-07 17:49 60.32177 24.96507 172 ft 15 kts 226°
2026-05-07 17:50 60.32083 24.96296 172 ft 16 kts 228°
2026-05-07 17:50 60.31992 24.96101 172 ft 19 kts 228°
2026-05-07 17:50 60.31927 24.96029 172 ft 10 kts 172°
2026-05-07 17:50 60.31884 24.96105 171 ft 10 kts 137°
2026-05-07 17:51 60.31827 24.96113 170 ft 8 kts 210°
2026-05-07 17:51 60.31800 24.96060 170 ft 1 kts 227°
2026-05-07 17:51 60.31785 24.96041 170 ft 3 kts 198°
2026-05-07 17:51 60.31764 24.96063 170 ft 5 kts 144°
2026-05-07 17:52 60.31729 24.96113 170 ft 7 kts 150°
2026-05-07 17:52 60.31718 24.96126 170 ft 0 kts 149°
2026-05-07 17:52 60.31714 24.96131 170 ft 0 kts 149°